Regional Weather Roundup
Issued by NWS Wilmington, NC

Home | Current Version | Previous Version | Text Only | Print | Product List | Glossary On
Versions: 1 2 3 4 5 6 7 8 9 10 11 12 13 14 15 16 17 18 19 20 21 22 23 24 25 26 27 28 29 30 31 32 33 34 35 36 37 38 39 40 41 42 43 44 45 46 47 48 49 50
000
ASUS42 KILM 240112
RWRILM
RWRILM
REGIONAL HOURLY WEATHER ROUNDUP
NATIONAL WEATHER SERVICE WILMINGTON NC
900 PM EDT TUE AUG 23 2016

NOTE: "FAIR" INDICATES FEW OR NO CLOUDS BELOW 12,000 FEET WITH NO
SIGNIFICANT WEATHER AND/OR OBSTRUCTIONS TO VISIBILITY.

...............WFO WILMINGTON COUNTY WARNING AREA...............

......COASTAL NC AND SC COUNTIES......

CITY           SKY/WX    TMP DP  RH WIND       PRES   REMARKS
WILMINGTON     CLEAR     77  65  66 E7        30.24R
N MYRTLE BEACH CLEAR     82  65  56 E8        30.22R
MYRTLE BEACH   CLEAR     82  61  47 SE10      30.24S

......INLAND NC AND SC COUNTIES.......

CITY           SKY/WX    TMP DP  RH WIND       PRES   REMARKS
LUMBERTON      CLOUDY    76  70  82 SE3       30.23R
ELIZABETHTOWN  PTCLDY    77  67  71 CALM      30.24R
WHITEVILLE     CLOUDY    78  67  67 CALM      30.24R
FLORENCE       CLEAR     79  67  66 SE6       30.23R
DARLINGTON     PTCLDY    79  69  71 SE3       30.23R
KINGSTREE      FAIR      73  66  78 E5        30.22S
HARTSVILLE     FAIR      79  66  65 SE5       30.22S
BENNETTSVILLE  CLOUDY    84  68  58 SE5       30.23R
CONWAY         FAIR      73  68  83 CALM      30.23R
GEORGETOWN     FAIR      77  64  65 E5        30.23R
MARION         MOCLDY    75  68  78 SE3       30.23S

....................REST OF NORTH CAROLINA......................

.........EASTERN NC.........

CITY           SKY/WX    TMP DP  RH WIND       PRES   REMARKS
CAPE HATTERAS  NOT AVBL
JACKSONVILLE   PTCLDY    76  67  73 NE5       30.26R
MOREHEAD CITY  CLEAR     77  64  64 NE8       30.26R
KENANSVILLE    NOT AVBL
NEW BERN       CLOUDY    78  63  59 E6        30.28R
ELIZABETH CITY CLEAR     74  59  59 NE8       30.29R

.........CENTRAL NC.........

CITY           SKY/WX    TMP DP  RH WIND       PRES   REMARKS
RALEIGH DURHAM PTCLDY    76  63  64 E3        30.27R
ROCKY MOUNT    CLEAR     75  66  73 CALM      30.27R
ROANOKE RAPIDS NOT AVBL
FAYETTEVILLE   MOCLDY    80  66  62 CALM      30.24R
HOFFMAN        CLEAR     78  66  68 E2        30.24R HAZE

.........WESTERN NC.........

CITY           SKY/WX    TMP DP  RH WIND       PRES   REMARKS
CHARLOTTE      MOCLDY    82  59  45 E7        30.26R
GREENSBORO     PTCLDY    78  62  57 CALM      30.28R
HICKORY        NOT AVBL
BOONE          NOT AVBL
ASHEVILLE      NOT AVBL

.....................REST OF SOUTH CAROLINA.....................

.........EASTERN SC.........

CITY           SKY/WX    TMP DP  RH WIND       PRES   REMARKS
CHARLESTON     PTCLDY    82  67  60 SE8       30.21R
BEAUFORT MCAS  PTCLDY    81  71  71 E7        30.20R
HILTON HEAD    CLOUDY    82  72  69 NE8G14    30.21R

.........CENTRAL SC.........

CITY           SKY/WX    TMP DP  RH WIND       PRES   REMARKS
COLUMBIA       PTCLDY    84  67  56 SE6       30.20R
ORANGEBURG     CLEAR     80  70  71 SE6       30.22R
SUMTER SHAW    CLEAR     81  70  69 SE7       30.20R

.........WESTERN SC.........

CITY           SKY/WX    TMP DP  RH WIND       PRES   REMARKS
GREENVILLE     NOT AVBL
ROCK HILL      CLEAR     76  63  64 CALM      30.26R
ANDERSON       CLEAR     80  67  64 CALM      30.23S
CLEMSON        NOT AVBL
GREENWOOD      PTCLDY    80  69  69 N3        30.24R


...................COASTAL AND OFFSHORE REPORTS..................

................LOCAL PIERS AND NC RESERVE................


STATION/POSITION TIME  SKY/WX   TEMP    WIND        PRES    VSBY
                                AIR SEA DIR/SP/G
                 (UTC)          (F)     (DEG/KT/KT) (MB)    (MI)
JOHNY MRCER PIER 0000            81 85   80/ 13/ 16 1022.9R
NC RESRV MASNBRO NOT AVBL
OCEAN CREST PIER NOT AVBL
SPRINGMAID  PIER 0000                    70/ 11/ 13 1023.1R


................COASTAL AND OFFSHORE BUOYS................


STATION/POSITION TIME  SKY/WX   TEMP    WIND        PRES    VSBY
                                AIR SEA DIR/SP/G
                 (UTC)          (F)     (DEG/KT/KT) (MB)    (MI)
DIMNDSHOAL 41025 0050            79 85   40/ 14/ 17 1024.4R
WVE H/P(F/S)=  4/ 7 SWL H/P/D(F/S/D)=  2/ 40/ 7

CAPE LOOKOUT     0100            79      50/ 18/ 20 1024.5R
ONSLOW BAY 41036 NOT AVBL
ONSLOW BAY 41064 0008            81 85   70/ 16/ 19 1023.8R
ONSLOW BAY 41159 0025               85                N/A
WVE H/P(F/S)=  3/ 5

5SE WRITBC 41038 0008            82 83   90/ 14/ 19 1024.6R
MASNBO INL 41110 0006               83                N/A
WVE H/P(F/S)=  3/ 5

WILM HARBR 41108 0026               85                N/A
WVE H/P(F/S)=  3/ 4

27SE WRITB 41037 0008            82 85   90/ 14/ 19 1023.5F
FRYING PAN 41013 0100            82 85   60/ 14/ 17 1023.0R
SUNST NRSH 41024 0008            83 86  100/ 14/ 19 1022.7F
CAPRS NRSH 41029 0008            83 85   90/ 14/ 17 1022.4S
EDISTO     41004 0050            83 85   80/ 16/ 17 1021.9R
WVE H/P(F/S)=  4/ 7 SWL H/P/D(F/S/D)=  2/100/ 7



..........OFFSHORE BUOYS BEYOND 100 NM OFFSHORE...........
.....IN A TRIANGLE---HAT TO BERMUDA TO BAHAMAS TO HAT.....


STATION/POSITION TIME  SKY/WX   TEMP    WIND        PRES    VSBY
                                AIR SEA DIR/SP/G
                 (UTC)          (F)     (DEG/KT/KT) (MB)    (MI)
150E HAT   41001 NOT AVBL
W BERMUDA  41048 0050            83 85   40/ 16/ 19 1019.2F
WVE H/P(F/S)=  5/ 7 SWL H/P/D(F/S/D)=  2/ 20/ 8

ATLANTIC S 41049 0050            84 85  120/ 14/ 16 1019.5R
WVE H/P(F/S)=  5/ 8 SWL H/P/D(F/S/D)=  3/100/ 8

E BAHAMAS  41046 0100            85 86   60/ 10/ 14 1016.9R
NE BAHAMAS 41047 0100            85 87   50/ 10/ 12 1017.9R
120E CANVRL41010 NOT AVBL

END



USA.gov is the U.S. government's official web portal to all federal, state and local government web resources and services.